sat.trackr.live / text

‹ back to catalog

STARLINK-33586

NORAD 63073 · 2025-035X

PAYLOAD ACTIVE UNKNOWN

§ Identity

Operator
Country
US
Launch date
2025-02-21
Launch site
AFETR
Launch vehicle
Mass (kg)
RCS (m²)

Purposes: comms

External: N2YO · Heavens-Above · Gunter

§ Orbital elements

Epoch: 2026-09-20T22:44:37.187232Z

Period
94.27 min
Inclination
43.0005°
Eccentricity
0.0001460
Mean motion
15.27584766 rev/d
Perigee alt
482.0 km
Apogee alt
484.0 km
Semi-major
6,861.2 km
B*
4.5302e-4
RAAN
117.2765°
Arg perigee
270.1187°
Mean anomaly
89.9497°
Rev number
8,967

§ Raw data

STARLINK-335861 63073U 25035X   26263.94765263  .00012226  00000+0  45302-3 0  99942 63073  43.0005 117.2765 0001460 270.1187  89.9497 15.27584766 89676

JSON: /api/v1/satellites/63073 · /tle

For live sub-satellite position, see the globe view (requires WebGL).

§ Visibility from observer

Set your observer location to see the next 7 days of passes ≥ 10°. The values pass through the URL so the page stays shareable.

No JS? Fill the form by hand. The geolocation button needs JavaScript.